Location: Newark
(7.0858°N, 171.3717°E)
Time: 07:33:44
(UTC+00:00)

A-11 Canister half - Pass Details

Date: 31 July 2021
Orbit: 1526 x 1683 km, 47.3° (Epoch: 16 September)

Event Time Altitude Azimuth Distance (km) Brightness Sun altitude
Rises 09:09:26 0° 311° (NW) 4,752 12.6 -32.0°
Reaches altitude 10° 09:12:36 10° 307° (NW) 3,748 11.8 -32.7°
Maximum altitude 09:21:46 57° 231° (SW) 1,770 9.3 -34.8°
Enters shadow 09:23:23 51° 197° (SSW) 1,862 9.2 -35.1°
